Location: Newark
(27.9675°N, 86.8869°E)
Time: 07:48:43
(UTC+00:00)

deb Explorer IX - All Passes

Search period start: 23 October 2019 00:00
Search period end: 02 November 2019 00:00
Orbit: 545 x 1106 km, 38.8° (Epoch: 22 October)

Date Brightness Start Highest point End Pass type
(mag) Time Alt. Az. Time Alt. Az. Time Alt. Az.
23 Oct - 03:29:02 10° S 03:31:38 16° SE 03:34:23 10° E daylight
23 Oct - 05:13:30 10° WSW 05:17:59 85° NNW 05:23:13 10° ENE daylight
23 Oct - 07:01:05 10° WNW 07:05:32 32° N 07:10:42 10° NE daylight
23 Oct - 08:48:54 10° NW 08:53:49 29° N 08:59:23 10° ENE daylight
23 Oct - 10:35:50 10° NW 10:41:55 55° NNE 10:48:49 10° E daylight
23 Oct - 12:22:56 10° WNW 12:29:26 53° SW 12:36:29 10° SE visible
23 Oct - 14:13:25 10° WSW 14:16:23 13° SW 14:19:24 10° SSW visible
24 Oct - 03:07:14 10° S 03:09:48 16° SE 03:12:31 10° E daylight
24 Oct - 04:51:47 10° WSW 04:56:10 83° NNW 05:01:14 10° ENE daylight
24 Oct - 06:39:23 10° WNW 06:43:41 30° N 06:48:37 10° NE daylight
24 Oct - 08:27:11 10° NW 08:31:55 29° N 08:37:19 10° ENE daylight
24 Oct - 10:14:00 10° NW 10:19:57 55° NNE 10:26:44 10° E daylight
24 Oct - 12:01:04 10° WNW 12:07:24 51° SW 12:14:22 10° SE visible
24 Oct - 13:51:43 10° WSW 13:54:23 12° SW 13:57:05 10° SSW visible
25 Oct - 02:45:25 10° S 02:47:59 16° SE 02:50:39 10° E daylight
25 Oct - 04:30:04 10° WSW 04:34:21 80° NNW 04:39:15 10° ENE daylight
25 Oct - 06:17:43 10° WNW 06:21:51 29° N 06:26:34 10° NE daylight
25 Oct - 08:05:27 10° NW 08:10:01 28° N 08:15:14 10° ENE daylight
25 Oct - 09:52:12 10° NW 09:57:59 55° NNE 10:04:39 10° ESE daylight
25 Oct - 11:39:13 10° WNW 11:45:24 50° SW 11:52:15 10° SE daylight
25 Oct - 13:30:07 10° WSW 13:32:22 12° SW 13:34:40 10° SSW visible
26 Oct - 02:23:35 10° S 02:26:09 16° SE 02:28:50 10° E daylight
26 Oct - 04:08:21 10° WSW 04:12:33 77° NNW 04:17:17 10° ENE daylight
26 Oct - 05:56:03 10° WNW 06:00:02 28° N 06:04:31 10° NE daylight
26 Oct - 07:43:44 10° NW 07:48:09 27° N 07:53:09 10° ENE daylight
26 Oct - 09:30:25 10° NW 09:36:02 55° NNE 09:42:34 10° ESE daylight
26 Oct - 11:17:24 10° WNW 11:23:23 48° SW 11:30:07 10° SE daylight
26 Oct - 13:08:40 10° WSW 13:10:22 11° SW 13:12:06 10° SSW visible
27 Oct - 02:01:42 10° S 02:04:21 17° SE 02:07:02 10° E daylight
27 Oct - 03:46:37 10° WSW 03:50:45 75° NNW 03:55:21 10° ENE daylight
27 Oct - 05:34:23 10° WNW 05:38:13 26° N 05:42:30 10° NE daylight
27 Oct - 07:22:02 10° NW 07:26:17 26° N 07:31:06 10° ENE daylight
27 Oct - 09:08:38 10° NW 09:14:05 56° NNE 09:20:28 10° ESE daylight
27 Oct - 10:55:36 10° WNW 11:01:24 46° SW 11:07:59 10° SE daylight
27 Oct - 12:47:34 10° SW 12:48:23 10° SW 12:49:10 10° SW visible
28 Oct - 01:39:50 10° S 01:42:31 17° SE 01:45:16 10° E daylight
28 Oct - 03:24:53 10° WSW 03:28:58 72° NNW 03:33:26 10° ENE daylight
28 Oct - 05:12:43 10° WNW 05:16:24 25° N 05:20:29 10° NE daylight
28 Oct - 07:00:21 10° NW 07:04:25 26° N 07:09:02 10° ENE daylight
28 Oct - 08:46:52 10° NW 08:52:10 56° NNE 08:58:23 10° ESE daylight
28 Oct - 10:33:48 10° WNW 10:39:25 44° SW 10:45:50 10° SE daylight
29 Oct - 01:17:56 10° S 01:20:43 18° SE 01:23:31 10° E daylight
29 Oct - 03:03:08 10° WSW 03:07:11 69° NNW 03:11:32 10° ENE daylight
29 Oct - 04:51:03 10° WNW 04:54:36 24° N 04:58:30 10° NE daylight
29 Oct - 06:38:39 10° NW 06:42:35 25° N 06:47:00 10° ENE daylight
29 Oct - 08:25:07 10° NW 08:30:16 56° NNE 08:36:19 10° ESE daylight
29 Oct - 10:12:02 10° WNW 10:17:27 42° SW 10:23:41 10° SSE daylight
30 Oct - 00:56:01 10° S 00:58:54 18° SE 01:01:47 10° E daylight
30 Oct - 02:41:22 10° WSW 02:45:25 67° NNW 02:49:39 10° NE daylight
30 Oct - 04:29:22 10° WNW 04:32:48 23° N 04:36:32 10° NE daylight
30 Oct - 06:16:58 10° NW 06:20:45 24° N 06:24:59 10° ENE daylight
30 Oct - 08:03:22 10° NW 08:08:21 56° NNE 08:14:15 10° ESE daylight
30 Oct - 09:50:17 10° WNW 09:55:30 40° SW 10:01:32 10° SSE daylight
31 Oct - 00:34:04 10° S 00:37:06 19° SE 00:40:04 10° E daylight
31 Oct - 02:19:35 10° WSW 02:23:39 64° NNW 02:27:48 10° NE daylight
31 Oct - 04:07:40 10° WNW 04:11:01 23° N 04:14:35 10° NE daylight
31 Oct - 05:55:16 10° NW 05:58:55 23° N 06:02:59 10° ENE daylight
31 Oct - 07:41:38 10° NW 07:46:29 57° NNE 07:52:11 10° ESE daylight
31 Oct - 09:28:32 10° WNW 09:33:34 38° SW 09:39:23 10° SSE daylight
01 Nov - 00:12:07 10° S 00:15:18 20° SE 00:18:22 10° E daylight
01 Nov - 01:57:48 10° WSW 02:01:52 62° NNW 02:05:58 10° NE daylight
01 Nov - 03:45:58 10° WNW 03:49:13 22° N 03:52:40 10° NE daylight
01 Nov - 05:33:34 10° NW 05:37:06 23° N 05:40:59 10° ENE daylight
01 Nov - 07:19:54 10° NW 07:24:37 57° NNE 07:30:08 10° ESE daylight
01 Nov - 09:06:49 10° W 09:11:39 36° SW 09:17:14 10° SSE daylight
01 Nov - 23:50:08 10° SSW 23:53:29 22° SE 23:56:41 10° E visible
